Location: ????????
(55.9229°N, 37.6762°E)
Time: 23:59:19
(UTC+00:00)

Daily predictions for brighter satellites

Satellite Brightness Start Highest point End
(mag) Time Altitude Azimuth Time Altitude Azimuth Time Altitude Azimuth
Sich 1 Rocket 4.3 16:10:05 10° SSE 16:14:06 33° E 16:18:10 10° NNE
Cosmos 1743 3.0 16:10:24 10° SSW 16:14:14 75° WNW 16:18:05 10° N
SJ-6B 3.6 16:12:19 10° SE 16:15:38 31° ENE 16:19:01 10° N
NOSS 2-3 (E) 3.9 16:11:39 10° SW 16:16:08 90° NNW 16:21:45 10° NE
Cosmos 2263 Rocket 2.5 16:11:05 10° S 16:16:19 44° ESE 16:21:37 10° NE
ATLAS CENTAUR R/B 1.9 16:14:52 10° WSW 16:18:41 54° NW 16:22:23 10° NE
Meteor 2-9 Rocket 4.4 16:13:36 10° S 16:19:20 59° E 16:25:00 10° NNE
Cosmos 1464 Rocket 4.4 16:18:01 10° SSE 16:23:35 38° E 16:29:13 10° NNE
Cosmos 1844 Rocket 4.2 16:21:28 10° SE 16:24:23 15° E 16:27:19 10° ENE
SL-08 RB Rocket 3.8 16:20:19 10° SSE 16:24:50 57° ENE 16:29:18 10° N
CZ-2C R/B 3.5 16:19:40 10° S 16:24:57 73° WSW 16:30:35 10° NNW
Cosmos 2227 4.4 16:20:03 10° S 16:25:36 54° ESE 16:31:10 10° NE
ARIANE 5 R/B 4.4 16:23:06 10° E 16:25:41 16° NE 16:28:16 10° NNE
Cosmos 1943 3.9 16:20:53 10° NW 16:26:25 57° WSW 16:31:56 10° SSE
Cosmos 990 Rocket 4.0 16:21:50 10° SSW 16:26:55 64° ESE 16:32:01 10° NNE
SJ 16-02 1.5 16:25:15 10° SSW 16:29:39 81° WNW 16:34:04 10° NNE
NOSS 3-2 (A) 4.0 16:23:14 10° NW 16:30:23 86° NE 16:38:37 10° SE
IRS-1A Rocket 4.5 16:24:50 10° SE 16:30:39 63° ENE 16:36:26 10° NNW
Okean 2 Rocket 3.8 16:30:24 10° SSE 16:34:26 33° E 16:38:28 10° NNE
Ariane Rocket 3.0 16:32:26 10° SSE 16:37:27 66° ENE 16:42:30 10° NNW
Abrixas rocket 3.9 16:36:44 10° SSW 16:38:34 16° SSE 16:39:58 12° SE
Lacrosse 5 rocket 1.5 16:34:54 10° WSW 16:39:10 73° SSE 16:43:40 10° ENE
Cosmos 1833 Rocket 4.0 16:34:55 10° NNW 16:39:46 28° NNE 16:44:24 11° E
Cosmos 494 Rocket 4.4 16:35:45 10° NNW 16:40:50 46° NE 16:45:32 12° SE
Cosmos 2227 Rocket 3.7 16:36:53 10° WSW 16:42:10 39° NW 16:47:29 10° NNE
NOSS 2-3 (D) 4.2 16:37:53 10° WSW 16:42:24 73° NNW 16:48:06 10° NE
USA 116 3.4 16:40:22 10° NNE 16:43:40 84° WNW 16:47:15 10° SSW
Cosmos 1437 4.3 16:41:23 10° NNW 16:44:12 36° W 16:46:58 10° SSW
Resurs 1-3 4.1 16:43:09 10° SE 16:47:15 40° ENE 16:51:24 10° N
SPOT 3 Rocket 4.0 16:42:26 10° SE 16:47:17 43° ENE 16:52:09 10° N
Cosmos 1300 Rocket 3.9 16:43:51 10° SSE 16:47:59 42° E 16:52:10 10° NNE
MetOp-A 4.2 16:42:51 10° SSE 16:48:09 65° ENE 16:53:29 10° NNW
Cosmos 1891 Rocket 4.5 16:45:13 10° S 16:51:12 59° E 16:57:09 10° NNE
Cosmos 1867 4.3 16:46:11 10° NW 16:51:29 52° SW 16:56:45 10° SSE
Timation 1 Rocket 4.5 16:45:38 10° SW 16:51:36 82° NW 16:57:38 10° NE
USA 234 4.3 16:47:44 10° E 16:52:39 22° SE 16:57:33 10° S
Cosmos 1898 Rocket 3.5 16:48:36 10° SSW 16:53:47 88° ESE 16:59:02 10° NNE
Cosmos 1536 Rocket 3.6 16:54:39 10° N 16:59:05 68° ENE 17:03:32 10° SSE
Meteor 2-5 Rocket 4.1 16:55:47 10° N 17:01:10 45° ENE 17:05:36 15° SE
DMSP B5D2-2 4.4 16:58:20 10° NNE 17:03:25 44° E 17:08:26 10° S
Terra 3.9 17:01:26 10° ENE 17:03:34 13° NE 17:05:50 10° NNE
USA 229 DEB 4.2 16:57:49 10° WSW 17:04:25 61° NNW 17:11:31 10° NE
NOSS 3-2 (C) 4.0 16:57:16 10° NW 17:04:26 88° NE 17:11:17 16° SE
USA 229 4.2 16:57:54 10° WSW 17:04:31 61° NNW 17:11:36 10° NE
Cosmos 858 Rocket 4.4 17:01:51 10° SSW 17:07:05 85° ESE 17:12:19 10° NNE
Cosmos 1626 3.2 17:04:17 10° N 17:07:30 27° ENE 17:08:46 22° E
Nadezhda 4 Rocket 3.9 17:06:04 10° N 17:12:15 83° ENE 17:18:23 10° SSE
Cosmos 372 Rocket 4.1 17:08:10 10° S 17:13:16 54° ESE 17:18:23 10° NE
Cosmos 1025 Rocket 3.3 17:08:59 10° NNW 17:13:22 73° W 17:17:44 10° S
Cosmos 1072 Rocket 4.5 17:07:50 10° S 17:14:05 83° E 17:20:30 10° NNE
Cosmos 1782 Rocket 4.4 17:09:52 10° SSW 17:14:12 54° WNW 17:18:36 10° N
CREW DRAGON DEMO-1 DEB 3.7 17:12:23 10° WSW 17:15:13 35° S 17:16:06 28° SE
Cosmos 2150 Rocket 4.5 17:10:15 10° S 17:15:14 40° ESE 17:20:19 10° NE
Cosmos 2151 Rocket 3.7 17:11:09 10° S 17:15:31 56° E 17:19:56 10° NNE
NOSS 3-1 (A) 4.0 17:10:38 10° WSW 17:16:30 61° NNW 17:23:33 10° NE
Cosmos 1975 4.4 17:12:52 10° SW 17:16:44 40° WNW 17:20:37 10° N
CZ-4 R/B 4.5 17:14:01 10° SW 17:16:44 17° W 17:19:28 10° NW
Cosmos 2082 Rocket 3.4 17:14:31 10° NNW 17:19:28 30° NNE 17:22:53 17° E
Cosmos 2034 Rocket 4.0 17:14:02 10° S 17:20:19 66° E 17:26:36 10° NNE
USA 186 3.1 17:18:32 10° S 17:21:31 40° W 17:24:39 10° NNW
MOS 1 Rocket 3.6 17:17:35 10° N 17:22:10 66° WNW 17:26:30 10° SSW
Cosmos 1937 Rocket 3.7 17:18:23 10° SSW 17:23:38 76° WNW 17:28:52 10° NNE
SPOT 5 4.4 17:21:41 18° E 17:23:52 24° NE 17:28:04 10° N
Cosmos 1125 Rocket 4.1 17:21:42 10° SSE 17:26:27 34° ESE 17:31:14 10° NE
Cosmos 1805 3.9 17:25:30 29° SE 17:26:34 35° E 17:30:11 10° NNE
COSMOS 2406 3.6 17:21:31 10° NNW 17:27:04 50° NE 17:30:13 25° ESE
NOSS 8 (H) 4.0 17:25:22 10° SW 17:28:24 79° SE 17:30:29 19° NE
NOSS 8 (E) 4.3 17:25:29 10° WSW 17:28:31 71° NW 17:31:17 13° NE
Meteor 1-24 Rocket 3.9 17:23:22 10° N 17:28:42 53° ENE 17:31:59 24° SE
Cosmos 2297 Rocket 4.4 17:25:22 10° W 17:30:01 25° NNW 17:34:39 10° NNE
OBJECT-B 0.8 17:28:11 21° S 17:30:12 78° WSW 17:33:29 10° NNW
NOSS 2-2 (E) 3.2 17:28:22 10° SSW 17:31:55 58° SE 17:36:10 10° NE
Cosmos 1674 2.7 17:28:25 10° NNW 17:32:19 86° WSW 17:34:52 20° S
FREGAT/IRIS 4.1 17:34:35 12° SSW 17:36:40 30° W 17:39:02 10° NNW
ATLAS 2AS CENTAUR R/B 3.9 17:37:35 23° ESE 17:37:35 23° ESE 17:43:18 10° ENE
ERS-1 Rocket 4.0 17:37:24 25° E 17:39:04 30° ENE 17:43:27 10° N
SL-14 R/B 3.5 17:35:57 10° N 17:39:45 48° ENE 17:40:43 39° ESE
NOSS 2-2 (D) 3.2 17:36:51 10° SSW 17:40:21 55° SE 17:44:30 10° NE
CZ-2C R/B 2.7 17:34:50 10° NNE 17:40:22 87° ESE 17:45:58 10° SSW
H-2A R/B 4.2 17:38:10 10° SW 17:42:14 25° W 17:46:24 10° NW
Cosmos 1733 3.8 17:42:25 37° E 17:42:25 37° E 17:45:55 10° NNE
Resurs 01 Rocket 1.5 17:41:42 26° SSE 17:44:12 83° ENE 17:48:42 10° NNW
CENTAUR R/B 3.3 17:37:42 10° NW 17:45:26 73° SW 17:51:21 23° SSE
Lacrosse 4 Rocket 2.6 17:44:42 10° NNW 17:48:22 31° NNE 17:49:36 26° ENE
Landsat 7 4.0 17:46:54 34° SE 17:48:39 54° ENE 17:53:19 10° N
KORONAS-FOTON 4.3 17:45:46 10° NNW 17:49:39 61° W 17:52:09 21° S
Cosmos 909 Rocket 4.5 17:42:45 10° NW 17:49:40 56° NNE 17:53:07 27° E
SJ-6B 4.4 17:46:55 10° SSW 17:50:18 32° W 17:53:44 10° NNW
ATLAS 3B R/B 2.8 17:45:02 10° NW 17:51:48 72° NNE 17:55:35 29° ESE
USA 238 DEB 4.4 17:46:03 10° NW 17:52:54 51° SW 17:58:10 19° SSE
USA 238 4.4 17:46:09 10° NW 17:53:01 51° SW 17:58:16 19° SSE
Cosmos 1634 Rocket 4.0 17:49:46 20° SSE 17:54:00 56° E 18:00:03 10° NNE
SPOT 1/Viking Rocket 3.8 17:53:07 35° ESE 17:55:01 53° ENE 18:00:03 10° N
Cosmos 1844 3.9 17:49:43 10° S 17:55:08 47° ESE 18:00:31 10° NE
Cosmos 2278 Rocket 4.3 17:58:55 11° ENE 17:58:55 11° ENE 17:59:14 10° ENE
ATLAS CENTAUR R/B 3.3 17:55:08 10° WNW 17:58:14 23° NNW 18:01:17 10° NE
Cosmos 2285 Rocket 4.1 17:52:23 10° S 17:58:29 54° ESE 18:04:39 10° NNE
Cosmos 1269 Rocket 4.0 17:53:21 10° NNW 17:58:42 90° WSW 18:01:04 34° SSE
Cosmos 1766 3.2 17:58:20 54° SE 17:58:51 60° E 18:02:45 10° NNE
Cosmos 2263 Rocket 3.1 17:54:50 10° WSW 18:00:15 50° NW 18:05:44 10° NNE
ARIANE 5 R/B 2.5 18:00:10 44° SSE 18:01:29 76° ENE 18:05:51 10° NNW
IGS 5A 3.4 18:00:40 50° SE 18:01:31 66° ENE 18:05:40 10° N
MetOp-B 4.1 17:59:48 31° SSE 18:02:28 84° ENE 18:07:52 10° NNW
Cosmos 1844 Rocket 2.6 18:01:44 10° SSW 18:07:14 66° ESE 18:12:49 10° NE
Cosmos 1455 Rocket 4.2 18:08:49 28° ENE 18:08:49 28° ENE 18:11:41 10° NNE
SJ 16-02 4.2 18:05:49 10° W 18:08:57 19° NW 18:12:06 10° N
Spot 2 Rocket 3.4 18:07:55 42° SE 18:09:36 73° ENE 18:14:39 10° NNW
Cosmos 1092 Rocket 4.3 18:04:27 10° NNW 18:10:32 65° W 18:15:35 16° S
Okean 1 Rocket 3.1 18:14:13 25° SSW 18:16:47 83° WNW 18:21:20 10° N
Cosmos 2026 Rocket 4.2 18:11:50 10° NNW 18:18:11 73° W 18:22:22 23° S
Lacrosse 5 rocket 1.6 18:14:03 10° W 18:18:28 76° N 18:19:36 49° ENE
Cosmos 1340 Rocket 3.5 18:19:45 39° NE 18:19:45 39° NE 18:22:36 10° NNE
Meteor 1-15 Rocket 4.4 18:13:05 10° SSW 18:18:44 75° WNW 18:24:31 10° NNE
Meteor 2-19 Rocket 4.4 18:13:17 10° N 18:19:27 71° ENE 18:21:36 42° SE
Cosmos 1833 Rocket 2.6 18:18:51 10° NNW 18:24:33 80° NE 18:26:05 50° SE
NOSS 2-2 (C) 3.3 18:21:16 10° WSW 18:24:55 77° NW 18:28:17 16° NE
CZ-2C R/B 3.7 18:20:30 10° NNE 18:24:58 80° WNW 18:27:16 29° SSW
Cosmos 2298 Rocket 4.3 18:21:50 10° SW 18:27:10 68° WNW 18:32:31 10° NNE
Cosmos 1461 4.3 18:24:53 10° NW 18:29:18 36° NNE 18:30:43 30° ENE
Cosmos 2251 Rocket 3.7 18:26:03 10° NNW 18:31:25 60° NE 18:32:21 52° E
USA 234 3.2 18:31:49 18° ENE 18:36:43 55° SSE 18:43:08 10° SW
H-2A R/B 3.9 18:33:38 10° NNE 18:37:01 52° NE 18:37:01 52° NE
Cosmos 2279 Rocket 3.9 18:36:18 43° SSE 18:38:23 71° E 18:44:38 10° NNE
Cosmos 2142 Rocket 4.4 18:36:37 36° S 18:39:25 81° E 18:45:41 10° NNE
Terra 2.0 18:40:19 54° ENE 18:40:24 54° ENE 18:45:04 10° N
Cosmos 1892 Rocket 3.9 18:38:04 10° NNW 18:42:21 59° W 18:42:56 53° SW
Cosmos 1626 3.4 18:39:25 10° NNW 18:42:50 35° W 18:43:18 34° WSW
CARTOSAT-1 3.6 18:52:23 80° NW 18:52:23 80° NW 18:56:32 10° NNW
Cosmos 1544 Rocket 4.5 19:01:47 39° NNE 19:01:47 39° NNE 19:04:39 10° NNE
SPOT 5 2.9 19:00:55 75° S 19:01:22 84° WSW 19:06:44 10° NNW
NOSS 3-4 (A) 4.4 19:06:43 33° ENE 19:06:43 33° ENE 19:10:26 10° NE
Cosmos 2082 Rocket 2.0 18:58:36 10° NW 19:04:16 90° SW 19:04:43 77° SSE
NOSS 3-4 (C) 4.4 19:06:53 33° ENE 19:06:53 33° ENE 19:10:32 10° NE
Cosmos 1125 Rocket 4.2 19:03:09 10° SW 19:08:22 54° NW 19:13:37 10° NNE
Okean 1-7 Rocket 4.4 19:04:32 10° NNW 19:08:55 46° W 19:09:15 46° WSW
Exosat Rocket 4.0 19:04:32 10° SW 19:09:43 60° NW 19:14:45 10° NNE
COSMOS 2406 3.9 19:06:01 10° NW 19:11:23 44° WSW 19:12:17 41° SW
SME Rocket 4.1 19:11:01 10° NNE 19:16:39 50° ENE 19:16:39 50° ENE
Cosmos 1726 4.4 19:19:59 20° NNE 19:19:59 20° NNE 19:21:13 10° NNE
ERS-1 Rocket 3.3 19:17:24 57° WSW 19:17:38 58° WSW 19:22:38 10° NNW
Cosmos 2266 Rocket 3.9 19:14:06 10° NNW 19:20:10 75° W 19:21:01 64° SSW
Cosmos 614 Rocket 4.1 19:15:44 10° NNW 19:20:34 67° NNE 19:20:34 67° NNE
Resurs 01 Rocket 4.0 19:19:16 13° WSW 19:21:18 17° W 19:24:13 10° NW
Cosmos 2098 Rocket 4.4 19:14:16 10° NNW 19:21:32 65° W 19:23:23 47° SSW
Meteor 2-21 4.3 19:16:35 10° NNW 19:22:49 82° ENE 19:23:17 76° SE
Cosmos 1809 Rocket 4.3 19:17:29 10° NNW 19:23:43 88° W 19:24:19 75° S
Cosmos 1602 Rocket 4.2 19:19:48 10° NNW 19:23:13 53° NNW 19:23:13 53° NNW
Cosmos 1953 4.2 19:28:08 25° NNE 19:28:08 25° NNE 19:29:54 10° NNE
Cosmos 1655 Rocket 4.4 19:19:56 10° NNW 19:26:04 57° W 19:27:33 46° SW
Meteor 1-21 Rocket 4.3 19:20:35 10° NNW 19:26:16 69° W 19:26:43 65° SW
Lacrosse 4 Rocket 2.7 19:23:18 10° NW 19:25:54 37° WNW 19:25:54 37° WNW
ATLAS 2AS CENTAUR R/B 2.9 19:24:48 45° SSW 19:27:22 68° SE 19:35:06 10° NE
Cosmos 1470 4.5 19:38:04 32° NNW 19:38:04 32° NNW 19:40:38 10° N
Nadezhda 2 Rocket 4.4 19:31:02 10° N 19:37:12 75° ENE 19:37:13 75° E
ATLAS CENTAUR R/B 3.3 19:35:02 10° NW 19:37:32 23° N 19:37:32 23° N
Cosmos 2278 Rocket 2.8 19:40:44 45° NE 19:40:44 45° NE 19:44:41 10° NE
ATLAS 3B R/B 3.2 19:35:54 10° NW 19:42:19 45° SW 19:42:49 44° SW
Cosmos 1455 Rocket 4.3 19:45:54 39° WNW 19:45:54 39° WNW 19:49:43 10° N
Meteor 2-10 4.3 19:48:52 70° WNW 19:48:52 70° WNW 19:54:11 10° NNE
Cosmos 909 Rocket 4.4 19:43:36 10° NW 19:49:59 50° WSW 19:50:00 50° WSW
NOSS 3-1 (C) 4.4 19:43:57 10° WNW 19:50:30 54° NNE 19:54:08 31° E
Cosmos 1844 Rocket 4.0 19:46:21 10° WSW 19:51:32 37° NW 19:56:45 10° NNE
Meteor 2-14 Rocket 4.5 19:47:46 10° NNW 19:53:53 69° W 19:54:01 69° WSW
Meteor 1-11 4.3 19:51:46 10° NNW 19:56:45 71° NNW 19:56:45 71° NNW
Lacrosse 5 rocket 3.4 19:53:18 10° WNW 19:55:13 25° WNW 19:55:13 25° WNW
Meteor 2-16 Rocket 4.4 20:00:25 10° NNW 20:06:18 76° WNW 20:06:18 76° WNW
Cosmos 1833 Rocket 4.2 20:03:25 10° NW 20:07:46 25° W 20:07:46 25° W
Cosmos 1461 4.4 20:04:05 10° NW 20:07:05 39° NW 20:07:05 39° NW
Cosmos 407 Rocket 4.2 20:06:05 10° NNW 20:09:56 50° NW 20:09:56 50° NW
Cosmos 1745 Rocket 4.1 20:06:30 10° N 20:12:07 64° NE 20:12:07 64° NE
Terra 3.5 20:19:13 27° WNW 20:19:13 27° WNW 20:22:33 10° NNW
USA 234 3.1 20:13:30 10° ENE 20:20:05 89° NNW 20:26:40 10° WSW
Cosmos 1140 Rocket 4.3 20:18:02 10° NNW 20:21:42 46° NW 20:21:42 46° NW
MOS 1-B Rocket 4.4 20:22:21 10° NNE 20:28:57 78° WNW 20:29:46 70° WSW
ALOS 2 4.3 20:33:26 32° N 20:33:26 32° N 20:35:51 10° NNW
SL-16 R/B 4.5 20:42:08 16° ENE 20:44:52 21° NE 20:49:17 10° N
Cosmos 1709 Rocket 4.2 20:41:29 10° N 20:46:53 63° NNE 20:46:53 63° NNE
Cosmos 2082 Rocket 4.0 20:43:31 10° NW 20:46:33 20° W 20:46:33 20° W
USA 229 DEB 4.0 20:41:28 10° NW 20:48:30 66° NNE 20:49:59 55° E
USA 229 4.0 20:41:34 10° NW 20:48:36 66° NNE 20:50:06 54° E
COSMOS 2455 3.5 20:52:44 48° NE 20:52:44 48° NE 20:57:00 10° NE
Cosmos 1943 Rocket 3.7 20:54:15 28° ENE 20:54:15 28° ENE 20:57:02 10° NE
S3M 4.2 20:53:53 62° NE 20:53:53 62° NE 20:59:03 10° NNE
NOSS 3-4 (A) 3.8 20:54:06 55° WNW 20:55:04 62° NNW 21:01:44 10° NE
NOSS 3-4 (C) 3.8 20:54:16 56° WNW 20:55:10 62° NNW 21:01:51 10° NE
NOSS 3-1 (A) 4.1 20:53:41 10° NW 21:00:32 65° NNE 21:02:58 45° E
Cosmos 2297 Rocket 4.1 20:57:26 10° NNW 21:02:09 26° NNE 21:05:21 16° ENE
Cosmos 2297 4.4 21:12:02 48° NNE 21:12:02 48° NNE 21:16:04 10° NE
Cosmos 2315 Rocket 4.5 21:13:48 54° ENE 21:13:48 54° ENE 21:19:04 10° NNE
CZ-4C R/B 3.2 21:16:51 43° ENE 21:16:51 43° ENE 21:21:15 10° NE
Cosmos 2369 Rocket 3.5 21:17:31 31° ENE 21:17:31 31° ENE 21:20:40 10° NE
Thor Agena Rocket 4.4 21:12:52 10° NNE 21:16:46 49° N 21:16:46 49° N
ATLAS 2AS CENTAUR R/B 3.4 21:11:59 15° WSW 21:18:42 61° NNW 21:26:19 10° ENE
Cosmos 2184 Rocket 4.5 21:15:27 10° N 21:21:05 52° ENE 21:21:05 52° ENE
Cosmos 2278 Rocket 3.4 21:22:33 33° WNW 21:23:35 36° NW 21:28:48 10° NNE
Cosmos 2056 Rocket 4.4 21:43:24 46° N 21:43:24 46° N 21:47:12 10° NNE
NOSS 3-1 (C) 3.9 21:34:52 10° NW 21:41:28 77° W 21:41:28 77° W
Cosmos 2227 Rocket 3.5 21:54:30 10° NNW 21:59:46 37° NE 22:01:46 29° E
Cosmos 1452 Rocket 4.5 22:03:25 44° NE 22:03:25 44° NE 22:07:00 10° NNE
USA 234 3.2 21:56:35 10° E 22:03:08 84° N 22:09:43 10° W
Timation 2 Rocket 4.2 21:58:02 10° NW 22:04:09 66° NE 22:04:09 66° NE
Meteor 2-3 Rocket 4.2 22:02:10 10° NNW 22:06:33 56° N 22:06:33 56° N
Cosmos 2219 3.9 22:07:58 10° NNW 22:13:32 50° NE 22:14:03 49° ENE
ADEOS II 4.5 22:13:06 10° NE 22:15:23 13° E 22:16:36 12° E
Cosmos 2154 Rocket 4.1 22:09:22 10° N 22:15:13 74° NNE 22:15:13 74° NNE
Cosmos 2074 Rocket 4.3 22:20:59 10° NNW 22:26:18 57° NW 22:26:18 57° NW
SL-16 R/B 2.6 22:27:13 66° E 22:27:33 68° ENE 22:33:41 10° NNW
Cosmos 2341 Rocket 4.3 22:21:20 10° N 22:27:40 60° ENE 22:28:12 58° E
Cosmos 968 Rocket 4.2 22:24:03 10° NNW 22:28:23 53° N 22:28:23 53° N
Cosmos 1943 Rocket 2.8 22:35:46 48° NW 22:35:46 48° NW 22:40:56 10° NNE
COSMOS 2455 3.9 22:35:52 33° WNW 22:37:27 39° NNW 22:43:08 10° NE
Cosmos 1656 Rocket 4.0 22:40:20 63° NNE 22:40:20 63° NNE 22:44:59 10° NE
USA 229 DEB 4.4 22:32:33 10° NW 22:37:21 42° WNW 22:37:21 42° WNW
USA 229 4.4 22:32:39 10° NW 22:37:28 42° WNW 22:37:28 42° WNW
CZ-2D R/B 3.2 22:34:43 10° NNE 22:39:26 37° E 22:39:26 37° E
ATLAS 5 CENTAUR R/B 3.7 22:44:53 20° E 22:44:53 20° E 22:46:53 10° ENE
Cosmos 2297 Rocket 2.4 22:41:30 10° NNW 22:47:05 69° NE 22:47:05 69° NE
NOSS 3-1 (A) 4.2 22:44:35 10° NW 22:50:19 53° W 22:50:19 53° W
Cosmos 2263 4.5 22:53:55 63° NW 22:53:55 63° NW 22:59:28 10° NNE
Resurs 1-4 Rocket 2.8 22:48:57 10° NNE 22:53:50 47° E 22:53:50 47° E
SL-19 R/B 4.4 22:51:40 10° NNE 22:56:20 62° ENE 22:56:20 62° ENE
Nadezhda 1 Rocket 3.8 22:58:04 84° NW 22:58:04 84° NW 23:04:04 10° N
Cosmos 2369 Rocket 2.8 22:59:18 48° NW 22:59:22 48° NW 23:04:53 10° NNE
Cosmos 1354 Rocket 4.3 22:55:05 10° NNW 23:00:16 63° NE 23:00:16 63° NE
Gbstr 26 Del rocket 4.4 23:02:21 65° S 23:02:37 65° S 23:10:24 10° E
CZ-4C R/B 3.2 23:02:00 38° WNW 23:03:49 49° NNW 23:10:33 10° ENE
NOSS 2-2 (E) 4.4 23:00:41 10° NW 23:05:35 69° NNE 23:12:26 10° ESE
ATLAS 2AS CENTAUR R/B 3.8 23:03:19 10° WNW 23:10:56 48° N 23:18:09 10° ENE
SJ 16-02 4.3 23:08:29 10° N 23:11:10 16° NE 23:13:50 10° ENE
Cosmos 1503 Rocket 4.2 23:08:32 10° NNW 23:12:55 63° NNW 23:12:55 63° NNW
NOSS 2-2 (D) 4.4 23:09:37 13° NW 23:14:01 68° NNE 23:20:41 10° ESE
Cosmos 2263 Rocket 4.0 23:12:23 10° NNW 23:17:20 30° NNE 23:22:18 10° E
Helios 1B rocket 3.9 23:16:16 10° N 23:18:47 31° NNW 23:18:47 31° NNW
Cosmos 405 Rocket 4.1 23:16:38 10° N 23:19:57 38° NE 23:19:57 38° NE
IRAS Rocket 4.2 23:22:14 73° WNW 23:22:14 73° WNW 23:27:31 10° NNW
ATLAS CENTAUR R/B 4.3 23:07:30 18° WSW 23:22:52 89° NNW 23:29:55 10° ENE
Cosmos 1818 4.4 23:24:53 39° ESE 23:24:53 39° ESE 23:29:57 10° NE
SL-8 Rocket 3.8 23:20:45 10° NNW 23:27:04 79° W 23:27:37 73° SSW
Cosmos 2221 3.3 23:29:14 48° N 23:29:14 48° N 23:32:26 10° N
COBE Rocket 4.4 23:31:38 51° NW 23:31:38 51° NW 23:35:41 10° NNW
Cosmos 2218 Rocket 3.9 23:31:51 10° NNW 23:38:16 78° W 23:39:21 62° SSW
Meteor 2-2 Rocket 4.1 23:40:08 75° SW 23:40:39 84° WNW 23:46:31 10° NNE
Cosmos 2366 rocket 3.9 23:34:34 10° NNW 23:40:52 78° W 23:41:56 62° SSW
Cosmos 1842 Rocket 4.3 23:43:34 46° NNW 23:43:34 46° NNW 23:47:07 10° N
Sich 1 3.6 23:38:47 10° NNW 23:42:00 50° NNW 23:42:00 50° NNW
Cosmos 2227 Rocket 2.3 23:38:36 10° NW 23:43:30 60° WNW 23:43:30 60° WNW
Cosmos 1777 Rocket 4.4 23:40:59 10° NNW 23:46:13 63° ENE 23:51:24 10° SE
USA 234 3.1 23:39:54 10° SE 23:46:24 66° SSW 23:50:26 25° WNW
Cosmos 292 Rocket 3.9 23:48:09 63° NW 23:48:09 63° NW 23:52:40 10° NNE
Cosmos 1656 4.3 23:49:11 38° SSE 23:50:25 44° ESE 23:55:39 10° NE
Cosmos 1992 Rocket 4.3 23:50:18 53° SSE 23:51:04 59° ESE 23:56:14 10° NNE
Lacrosse 5 3.8 23:53:36 18° SE 23:54:17 18° SE 23:57:40 10° E
